SYRACUSE 4B

Last updated on Wed Oct 29 2025 00:02:51 GMT+0000 (Coordinated Universal Time)

1 57214U 23093B 25300.30531097 -.00000043 00000+0 00000+0 0 9990 2 57214 0.0173 246.9374 0000149 184.6515 67.7442 1.00270283 4637
UTC large
Height (km)
Speed (km/s)
/
Latitude / Longitude
Inclination (degrees)
Orbital Period (minutes)
Azimuth
Elevation
Range (km)
Doppler Factor

Next 0 passes for location: London (51.5072 / 0.1276)

Sorry there are no passes over London.